Red Bluff, CA

11:25 PM PDT on October 13, 2019 (GMT -0700)
Red Bluff Municipal

Weather History for KRBL - September, 2019

Change the Weather History Date:

Friday, September 20, 2019

  Actual Average Record
Temperature  
Mean Temperature 72 °F -  
Max Temperature 86 °F 89 °F 107 °F (1974)
Min Temperature 57 °F 58 °F 43 °F (1941)
Cooling Degree Days 6    
Growing Degree Days 22 (Base 50)    
Moisture  
Dew Point 45 °F    
Average Humidity 39    
Maximum Humidity 64    
Minimum Humidity 13    
Precipitation  
Precipitation 0.00 in - - ()
Sea Level Pressure  
Sea Level Pressure 29.95 in    
Wind  
Wind Speed 10 mph (NNW)    
Max Wind Speed 16 mph    
Max Gust Speed 24 mph    
Visibility 10 miles    
Events      
Averages and records for this station are not official NWS values.
T = Trace of Precipitation, MM = Missing Value Source: NWS Daily Summary

Daily Weather History Graph

Daily Weather History Graph

Search for Another Location

Airport or City:

Astronomy

Sep. 20, 2019 Rise Set
Actual Time 6:54 AM PDT 7:09 PM PDT
Civil Twilight 6:27 AM PDT 7:36 PM PDT
Nautical Twilight 5:55 AM PDT 8:08 PM PDT
Astronomical Twilight 5:23 AM PDT 8:40 PM PDT
Moon 11:03 PM PDT (9/20) 1:05 PM PDT (9/20)
Length of Visible Light 13h 09m
Length of Day
12h 15m
Waning Gibbous, 64% of the Moon is Illuminated
Sep 20
Waning Gibbous
Sep 21
Last Quarter
Sep 28
New
Oct 5
First Quarter
Oct 13
Full

Hourly Weather History & Observations

Time (PDT) Temp. Dew Point Humidity Pressure Visibility Wind Dir Wind Speed Gust Speed Precip Events Conditions
12:54 AM 64.0 °F 45.0 °F 50% 29.95 in 10.0 mi WNW 10.4 mph - N/A   Clear
1:54 AM 63.0 °F 45.0 °F 52% 29.96 in 10.0 mi WNW 6.9 mph - N/A   Clear
2:54 AM 62.1 °F 46.0 °F 56% 29.96 in 10.0 mi NW 8.1 mph - N/A   Clear
3:54 AM 59.0 °F 46.0 °F 62% 29.96 in 10.0 mi North 8.1 mph - N/A   Clear
4:54 AM 60.1 °F 45.0 °F 57% 29.96 in 10.0 mi NNW 10.4 mph - N/A   Clear
5:54 AM 57.9 °F 45.0 °F 62% 29.97 in 10.0 mi NNW 6.9 mph - N/A   Clear
6:54 AM 57.0 °F 45.0 °F 64% 29.98 in 10.0 mi NNW 6.9 mph - N/A   Clear
7:54 AM 60.1 °F 45.0 °F 57% 29.99 in 10.0 mi NNW 9.2 mph - N/A   Clear
8:54 AM 66.9 °F 46.0 °F 47% 30.00 in 10.0 mi North 9.2 mph - N/A   Clear
9:54 AM 72.0 °F 45.0 °F 38% 30.00 in 10.0 mi North 15.0 mph - N/A   Clear
10:54 AM 75.9 °F 44.1 °F 32% 30.00 in 10.0 mi North 12.7 mph 20.7 mph N/A   Clear
11:54 AM 79.0 °F 44.1 °F 29% 29.98 in 10.0 mi NNW 13.8 mph - N/A   Clear
12:54 PM 81.0 °F 42.1 °F 25% 29.97 in 10.0 mi North 10.4 mph - N/A   Clear
2:54 PM 84.0 °F 41.0 °F 22% 29.93 in 10.0 mi NNW 13.8 mph 24.2 mph N/A   Clear
3:54 PM 84.9 °F 43.0 °F 23% 29.91 in 10.0 mi NNW 12.7 mph - N/A   Clear
4:54 PM 86.0 °F 43.0 °F 22% 29.90 in 10.0 mi North 16.1 mph 23.0 mph N/A   Clear
5:54 PM 84.0 °F 43.0 °F 24% 29.89 in 10.0 mi NNW 11.5 mph - N/A   Clear
6:54 PM 81.0 °F 43.0 °F 26% 29.89 in 10.0 mi NNW 10.4 mph - N/A   Clear
7:54 PM 75.0 °F 45.0 °F 34% 29.91 in 10.0 mi NNW 5.8 mph - N/A   Clear
8:54 PM 73.9 °F 45.0 °F 35% 29.92 in 10.0 mi Calm Calm - N/A   Clear
9:54 PM 70.0 °F 46.0 °F 42% 29.94 in 10.0 mi WNW 6.9 mph - N/A   Clear
10:54 PM 69.1 °F 46.0 °F 44% 29.95 in 10.0 mi NW 6.9 mph - N/A   Clear
11:54 PM 66.0 °F 46.0 °F 48% 29.96 in 10.0 mi North 6.9 mph - N/A   Clear